User: anonymous   Login
Location: Augustenthal
(51.7167°N, 10.2833°E)
Time: 00:33:41
(UTC+00:00)
Language:

Cosmos 1455 Rocket - Orbit

View from above orbital plane
View from above orbital plane
View from above satellite
View from above satellite

Ground track
Ground track

The orbit data is extracted from the following two-line orbital elements,

1 14033U 83037B   21213.48403392  .00000092  00000-0  81784-5 0  9998
2 14033  82.5078  12.7908 0017672 181.4250 178.6918 14.83862203702976
Epoch (UTC): 01 August 2021 11:37:00
Eccentricity: 0.0017672
inclination: 82.5078°
perigee height: 605 km
apogee height: 629 km
right ascension of ascending node: 12.7908°
argument of perigee: 181.4250°
revolutions per day: 14.83862203
mean anomaly at epoch: 178.6918°
orbit number at epoch: 70297

The dashed part of the orbit path shows where the satellite is in the earth's shadow,  

DLR